Location: Bremen
(53.0793°N, 8.8017°E)
Time: 21:10:20
(UTC+01:00)

S-56A Canister/Altair - Pass Details

Date: 04 December 2021
Orbit: 634 x 2499 km, 38.9° (Epoch: 26 January)

Event Time Altitude Azimuth Distance (km) Brightness Sun altitude
Rises 02:13:57 0° 244° (WSW) 4,603 - -51.7°
Reaches altitude 10° 02:18:06 10° 232° (SW) 3,270 - -51.3°
Maximum altitude 02:23:53 23° 184° (S) 1,986 - -50.6°
Drops below altitude 10° 02:28:20 10° 132° (SE) 2,442 - -50.1°
Sets 02:30:56 0° 117° (ESE) 3,200 - -49.8°
